WAT3465 EDHL-EDDN

Flight info

Callsign WAT3465
Flight time 1h 4m
Altitude 31000
Route RAMAR2A RAMAR Z990 HLZ DCT ZUCKA DCT GALMA M736 TABAT Q244 PIVIR PIVIR1T
Aircraft A320/M-SDE3FGHIRWY/LB1

Departure

Time 2026-05-09 18:52
Airport Lübeck Blankensee Airport (EDHL)

Arrival

Time 2026-05-09 19:57
Airport Nuremberg Airport (EDDN)
Time Latitude Longitude Altitude Speed Heading
2026-05-09 18:32 53.80462 10.70289 62 ft 0 kts 342°
2026-05-09 18:49 53.80468 10.70275 57 ft 0 kts 302°
2026-05-09 18:49 53.80466 10.70251 61 ft 3 kts 249°
2026-05-09 18:49 53.80438 10.70232 58 ft 9 kts 195°
2026-05-09 18:50 53.80398 10.70180 58 ft 7 kts 244°
2026-05-09 18:50 53.80383 10.70124 57 ft 3 kts 225°
2026-05-09 18:50 53.80362 10.70119 60 ft 5 kts 180°
2026-05-09 18:50 53.80311 10.70133 58 ft 11 kts 168°
2026-05-09 18:51 53.80256 10.70153 59 ft 7 kts 167°
2026-05-09 18:51 53.80212 10.70171 60 ft 6 kts 161°
2026-05-09 18:51 53.80206 10.70223 55 ft 4 kts 72°
2026-05-09 18:51 53.80217 10.70279 58 ft 10 kts 71°
2026-05-09 18:52 53.80316 10.70792 58 ft 85 kts 72°
2026-05-09 18:52 53.80565 10.72100 63 ft 145 kts 71°
2026-05-09 18:52 53.80871 10.73741 680 ft 147 kts 73°
2026-05-09 18:52 53.81173 10.75413 1398 ft 153 kts 75°
2026-05-09 18:53 53.81395 10.76626 1705 ft 166 kts 75°
2026-05-09 18:53 53.81759 10.78597 2160 ft 185 kts 75°
2026-05-09 18:53 53.82169 10.80783 2580 ft 206 kts 75°
2026-05-09 18:53 53.82800 10.84092 3222 ft 236 kts 74°
2026-05-09 18:54 53.83152 10.85897 3795 ft 241 kts 73°
2026-05-09 18:54 53.83400 10.88696 4691 ft 243 kts 102°
2026-05-09 18:54 53.82657 10.91197 5610 ft 241 kts 138°
2026-05-09 18:54 53.81309 10.92868 6603 ft 241 kts 149°
2026-05-09 18:55 53.79802 10.94135 7453 ft 246 kts 165°
2026-05-09 18:55 53.78080 10.94553 8195 ft 258 kts 176°
2026-05-09 18:55 53.76249 10.94511 8791 ft 273 kts 184°
2026-05-09 18:55 53.74300 10.94229 9652 ft 280 kts 185°
2026-05-09 18:56 53.72312 10.93935 10054 ft 286 kts 185°
2026-05-09 18:56 53.70343 10.93700 10146 ft 304 kts 184°
2026-05-09 18:56 53.68113 10.93482 10203 ft 336 kts 183°
2026-05-09 18:56 53.65720 10.93252 10879 ft 344 kts 184°
2026-05-09 18:57 53.63309 10.92995 11632 ft 349 kts 184°
2026-05-09 18:57 53.60867 10.92732 12433 ft 353 kts 184°
2026-05-09 18:57 53.58397 10.92469 13219 ft 358 kts 184°
2026-05-09 18:57 53.55897 10.92205 13983 ft 362 kts 184°
2026-05-09 18:58 53.53374 10.91940 14674 ft 366 kts 185°
2026-05-09 18:58 53.50821 10.91670 15361 ft 369 kts 185°
2026-05-09 18:58 53.48277 10.91401 16036 ft 373 kts 185°
2026-05-09 18:58 53.45646 10.91118 16735 ft 376 kts 185°
2026-05-09 18:59 53.43050 10.90833 17405 ft 380 kts 185°
2026-05-09 18:59 53.40369 10.90533 18097 ft 384 kts 186°
2026-05-09 18:59 53.37691 10.90232 18719 ft 387 kts 186°
2026-05-09 18:59 53.35023 10.89936 19293 ft 391 kts 186°
2026-05-09 19:00 53.32295 10.89639 19880 ft 394 kts 186°
2026-05-09 19:00 53.26768 10.89048 21019 ft 402 kts 185°
2026-05-09 19:00 53.23963 10.88750 21566 ft 405 kts 186°
2026-05-09 19:01 53.21134 10.88445 22098 ft 409 kts 185°
2026-05-09 19:01 53.18279 10.88138 22627 ft 413 kts 185°
2026-05-09 19:01 53.15407 10.87831 23140 ft 416 kts 185°
2026-05-09 19:01 53.12505 10.87522 23642 ft 419 kts 185°
2026-05-09 19:02 53.09580 10.87212 24064 ft 423 kts 185°
2026-05-09 19:02 53.06641 10.86900 24470 ft 425 kts 185°
2026-05-09 19:02 53.03681 10.86588 24873 ft 428 kts 185°
2026-05-09 19:02 53.00702 10.86273 25098 ft 429 kts 185°
2026-05-09 19:03 52.97721 10.85957 25146 ft 429 kts 185°
2026-05-09 19:03 52.94741 10.85639 25154 ft 429 kts 185°
2026-05-09 19:03 52.91764 10.85327 25286 ft 431 kts 185°
2026-05-09 19:03 52.88755 10.85178 25717 ft 434 kts 182°
2026-05-09 19:04 52.85730 10.85225 26121 ft 436 kts 180°
2026-05-09 19:04 52.82685 10.85397 26493 ft 439 kts 179°
2026-05-09 19:04 52.79620 10.85616 26856 ft 441 kts 179°
2026-05-09 19:04 52.76541 10.85827 27221 ft 444 kts 180°
2026-05-09 19:05 52.73453 10.86000 27567 ft 446 kts 180°
2026-05-09 19:05 52.70341 10.86134 27909 ft 448 kts 180°
2026-05-09 19:05 52.67215 10.86241 28259 ft 450 kts 181°
2026-05-09 19:05 52.64103 10.86334 28902 ft 444 kts 181°
2026-05-09 19:06 52.61035 10.86427 29590 ft 439 kts 181°
2026-05-09 19:06 52.57991 10.86527 30145 ft 438 kts 181°
2026-05-09 19:06 52.54918 10.86633 30272 ft 445 kts 181°
2026-05-09 19:06 52.51798 10.86741 30398 ft 451 kts 181°
2026-05-09 19:07 52.48632 10.86846 30516 ft 456 kts 181°
2026-05-09 19:07 52.45455 10.86953 30679 ft 460 kts 180°
2026-05-09 19:07 52.42252 10.87068 30926 ft 460 kts 180°
2026-05-09 19:07 52.39046 10.87185 31107 ft 461 kts 180°
2026-05-09 19:08 52.32702 10.87419 31143 ft 454 kts 180°
2026-05-09 19:08 52.26437 10.87639 31142 ft 453 kts 181°
2026-05-09 19:09 52.20142 10.87856 31131 ft 453 kts 181°
2026-05-09 19:09 52.13839 10.88073 31146 ft 453 kts 181°
2026-05-09 19:10 52.07536 10.88289 31141 ft 453 kts 181°
2026-05-09 19:10 52.01240 10.88502 31154 ft 453 kts 180°
2026-05-09 19:11 51.94941 10.88724 31134 ft 452 kts 180°
2026-05-09 19:11 51.88644 10.88939 31152 ft 452 kts 181°
2026-05-09 19:12 51.82357 10.89151 31137 ft 452 kts 180°
2026-05-09 19:12 51.76073 10.89369 31135 ft 452 kts 180°
2026-05-09 19:13 51.69879 10.91106 31134 ft 456 kts 161°
2026-05-09 19:13 51.67018 10.93314 31127 ft 458 kts 150°
2026-05-09 19:13 51.64441 10.96351 31138 ft 460 kts 139°
2026-05-09 19:14 51.60242 11.04156 31132 ft 462 kts 129°
2026-05-09 19:14 51.56257 11.12184 31132 ft 463 kts 129°
2026-05-09 19:15 51.52227 11.20265 31128 ft 463 kts 129°
2026-05-09 19:15 51.48194 11.28333 31132 ft 464 kts 129°
2026-05-09 19:16 51.44122 11.36348 31128 ft 463 kts 134°
2026-05-09 19:16 51.39035 11.42559 31129 ft 460 kts 154°
2026-05-09 19:17 51.33003 11.45664 31121 ft 455 kts 174°
2026-05-09 19:17 51.26692 11.46391 31125 ft 455 kts 178°
2026-05-09 19:18 51.20376 11.46996 31118 ft 455 kts 178°
2026-05-09 19:18 51.14050 11.47597 31120 ft 455 kts 178°
2026-05-09 19:19 51.07722 11.48203 31119 ft 455 kts 178°
2026-05-09 19:19 51.01397 11.48803 31117 ft 456 kts 178°
2026-05-09 19:20 50.95057 11.49412 31118 ft 456 kts 178°
2026-05-09 19:20 50.88721 11.50012 30874 ft 455 kts 180°
2026-05-09 19:21 50.85593 11.49654 30133 ft 449 kts 194°
2026-05-09 19:21 50.82640 11.48146 29042 ft 448 kts 203°
2026-05-09 19:21 50.79758 11.46384 28383 ft 450 kts 203°
2026-05-09 19:21 50.76790 11.44548 28151 ft 453 kts 203°
2026-05-09 19:22 50.70918 11.40914 28117 ft 450 kts 203°
2026-05-09 19:22 50.68106 11.39187 28114 ft 429 kts 203°
2026-05-09 19:22 50.65353 11.37514 28117 ft 410 kts 203°
2026-05-09 19:23 50.62782 11.35964 28115 ft 392 kts 203°
2026-05-09 19:23 50.60286 11.34459 28111 ft 376 kts 203°
2026-05-09 19:23 50.57897 11.33018 28110 ft 360 kts 203°
2026-05-09 19:23 50.55605 11.31636 28106 ft 345 kts 203°
2026-05-09 19:24 50.53341 11.30265 27137 ft 357 kts 203°
2026-05-09 19:24 50.50966 11.28815 26068 ft 373 kts 203°
2026-05-09 19:24 50.48503 11.27310 25028 ft 387 kts 203°
2026-05-09 19:24 50.45942 11.25753 23972 ft 401 kts 203°
2026-05-09 19:25 50.43288 11.24150 22978 ft 417 kts 202°
2026-05-09 19:25 50.40572 11.22521 22254 ft 415 kts 202°
2026-05-09 19:25 50.37907 11.20931 21584 ft 410 kts 202°
2026-05-09 19:25 50.35224 11.19330 20739 ft 413 kts 202°
2026-05-09 19:26 50.32547 11.17728 20065 ft 410 kts 202°
2026-05-09 19:26 50.29892 11.16136 19451 ft 407 kts 202°
2026-05-09 19:26 50.27257 11.14561 18853 ft 404 kts 202°
2026-05-09 19:26 50.24641 11.13004 18275 ft 401 kts 202°
2026-05-09 19:27 50.22052 11.11462 17643 ft 397 kts 202°
2026-05-09 19:27 50.19478 11.09932 17037 ft 394 kts 202°
2026-05-09 19:27 50.16928 11.08417 16450 ft 390 kts 202°
2026-05-09 19:27 50.14405 11.06923 15872 ft 387 kts 202°
2026-05-09 19:28 50.11898 11.05438 15305 ft 384 kts 202°
2026-05-09 19:28 50.09415 11.03964 14742 ft 380 kts 202°
2026-05-09 19:28 50.06950 11.02503 14195 ft 377 kts 202°
2026-05-09 19:28 50.04504 11.01057 13600 ft 374 kts 202°
2026-05-09 19:29 50.02078 10.99625 12984 ft 371 kts 202°
2026-05-09 19:29 49.99681 10.98209 12373 ft 367 kts 202°
2026-05-09 19:29 49.97304 10.96804 11764 ft 363 kts 202°
2026-05-09 19:29 49.94951 10.95416 11157 ft 360 kts 202°
2026-05-09 19:30 49.92626 10.94050 10715 ft 352 kts 202°
2026-05-09 19:30 49.90397 10.92745 10593 ft 335 kts 202°
2026-05-09 19:30 49.88267 10.91500 10464 ft 320 kts 202°
2026-05-09 19:30 49.86229 10.90308 10340 ft 306 kts 202°
2026-05-09 19:31 49.84277 10.89163 10219 ft 294 kts 202°
2026-05-09 19:31 49.82399 10.88061 10022 ft 286 kts 202°
2026-05-09 19:31 49.80550 10.86979 9674 ft 283 kts 202°
2026-05-09 19:31 49.78716 10.85910 9278 ft 281 kts 202°
2026-05-09 19:32 49.76893 10.84848 8886 ft 279 kts 202°
2026-05-09 19:32 49.75085 10.83793 8505 ft 278 kts 202°
2026-05-09 19:32 49.73287 10.82740 8050 ft 273 kts 202°
2026-05-09 19:32 49.71520 10.81706 7523 ft 265 kts 202°
2026-05-09 19:33 49.69866 10.80741 7352 ft 245 kts 201°
2026-05-09 19:33 49.68336 10.79852 6935 ft 239 kts 201°
2026-05-09 19:33 49.66790 10.78955 6438 ft 236 kts 201°
2026-05-09 19:33 49.65281 10.78081 6065 ft 232 kts 201°
2026-05-09 19:34 49.63748 10.77189 5665 ft 237 kts 201°
2026-05-09 19:34 49.62203 10.76287 5253 ft 237 kts 200°
2026-05-09 19:34 49.60661 10.75384 4886 ft 237 kts 200°
2026-05-09 19:34 49.59125 10.74486 4525 ft 236 kts 200°
2026-05-09 19:35 49.57560 10.73833 4189 ft 231 kts 184°
2026-05-09 19:35 49.55999 10.74030 4035 ft 219 kts 163°
2026-05-09 19:35 49.54656 10.74931 3989 ft 203 kts 146°
2026-05-09 19:35 49.53614 10.76324 4000 ft 198 kts 129°
2026-05-09 19:36 49.52901 10.78113 4005 ft 196 kts 112°
2026-05-09 19:36 49.52549 10.80080 4055 ft 183 kts 99°
2026-05-09 19:36 49.52429 10.81325 4030 ft 172 kts 98°
2026-05-09 19:36 49.52259 10.83149 3933 ft 176 kts 99°
2026-05-09 19:37 49.52076 10.85035 3696 ft 178 kts 99°
2026-05-09 19:37 49.51892 10.86878 3441 ft 167 kts 99°
2026-05-09 19:37 49.51731 10.88562 3239 ft 150 kts 98°
2026-05-09 19:37 49.51590 10.90075 3021 ft 138 kts 98°
2026-05-09 19:38 49.51456 10.91484 2845 ft 129 kts 98°
2026-05-09 19:38 49.51324 10.92855 2705 ft 130 kts 98°
2026-05-09 19:38 49.51191 10.94231 2529 ft 129 kts 98°
2026-05-09 19:38 49.51059 10.95594 2351 ft 129 kts 97°
2026-05-09 19:39 49.50925 10.96964 2186 ft 130 kts 97°
2026-05-09 19:39 49.50792 10.98340 2029 ft 131 kts 97°
2026-05-09 19:39 49.50658 10.99715 1864 ft 132 kts 97°
2026-05-09 19:39 49.50521 11.01127 1671 ft 134 kts 97°
2026-05-09 19:40 49.50382 11.02542 1498 ft 133 kts 98°
2026-05-09 19:40 49.50245 11.03951 1319 ft 133 kts 97°
2026-05-09 19:40 49.50106 11.05367 1177 ft 141 kts 98°
2026-05-09 19:40 49.49940 11.07021 1772 ft 165 kts 98°
2026-05-09 19:41 49.49759 11.08815 2539 ft 175 kts 97°
2026-05-09 19:41 49.49566 11.10786 2972 ft 197 kts 98°
2026-05-09 19:41 49.49358 11.12909 3730 ft 203 kts 98°
2026-05-09 19:41 49.49151 11.15091 4574 ft 209 kts 99°
2026-05-09 19:42 49.48948 11.17350 4912 ft 215 kts 98°
2026-05-09 19:42 49.48752 11.19625 4994 ft 215 kts 98°
2026-05-09 19:42 49.48557 11.21914 5006 ft 215 kts 98°
2026-05-09 19:42 49.48658 11.24184 5011 ft 216 kts 69°
2026-05-09 19:43 49.49585 11.26017 5020 ft 233 kts 34°
2026-05-09 19:43 49.51156 11.26869 5015 ft 247 kts
2026-05-09 19:43 49.52832 11.26353 5011 ft 250 kts 332°
2026-05-09 19:43 49.54143 11.24624 5016 ft 250 kts 308°
2026-05-09 19:44 49.55201 11.22468 5016 ft 260 kts 305°
2026-05-09 19:44 49.56278 11.20143 5012 ft 270 kts 304°
2026-05-09 19:44 49.57363 11.17780 5009 ft 271 kts 304°
2026-05-09 19:44 49.58455 11.15397 5008 ft 271 kts 304°
2026-05-09 19:45 49.59542 11.13025 5010 ft 271 kts 304°
2026-05-09 19:45 49.60630 11.10648 5008 ft 271 kts 304°
2026-05-09 19:45 49.61695 11.08248 5010 ft 271 kts 298°
2026-05-09 19:45 49.62251 11.05510 5013 ft 269 kts 277°
2026-05-09 19:46 49.62470 11.02640 5010 ft 269 kts 275°
2026-05-09 19:46 49.62652 10.99762 5009 ft 269 kts 274°
2026-05-09 19:46 49.62829 10.96885 5011 ft 269 kts 274°
2026-05-09 19:46 49.63000 10.94091 5006 ft 253 kts 274°
2026-05-09 19:47 49.63164 10.91428 5011 ft 248 kts 274°
2026-05-09 19:47 49.63325 10.88778 5013 ft 247 kts 274°
2026-05-09 19:47 49.63483 10.86191 5010 ft 239 kts 274°
2026-05-09 19:47 49.63639 10.83649 5014 ft 238 kts 274°
2026-05-09 19:48 49.63794 10.81119 5013 ft 237 kts 274°
2026-05-09 19:48 49.63950 10.78585 5013 ft 237 kts 274°
2026-05-09 19:48 49.64105 10.76054 5013 ft 237 kts 274°
2026-05-09 19:48 49.64258 10.73534 5009 ft 231 kts 274°
2026-05-09 19:49 49.64115 10.71183 5003 ft 216 kts 245°
2026-05-09 19:49 49.63147 10.69335 5007 ft 229 kts 212°
2026-05-09 19:49 49.61653 10.68522 5004 ft 231 kts 188°
2026-05-09 19:49 49.60071 10.68244 5009 ft 232 kts 185°
2026-05-09 19:50 49.58448 10.68030 4999 ft 226 kts 184°
2026-05-09 19:50 49.56941 10.68042 4992 ft 209 kts 165°
2026-05-09 19:50 49.55735 10.69083 4870 ft 199 kts 139°
2026-05-09 19:50 49.54752 10.70529 4728 ft 192 kts 135°
2026-05-09 19:51 49.53840 10.71997 4536 ft 187 kts 132°
2026-05-09 19:51 49.53145 10.73743 4359 ft 191 kts 106°
2026-05-09 19:51 49.52913 10.75708 4225 ft 188 kts 97°
2026-05-09 19:51 49.52755 10.77694 4100 ft 186 kts 97°
2026-05-09 19:52 49.52596 10.79621 4090 ft 175 kts 98°
2026-05-09 19:52 49.52424 10.81474 4077 ft 175 kts 99°
2026-05-09 19:52 49.52238 10.83333 3919 ft 176 kts 98°
2026-05-09 19:52 49.52060 10.85196 3664 ft 176 kts 98°
2026-05-09 19:53 49.51881 10.87053 3401 ft 171 kts 98°
2026-05-09 19:53 49.51713 10.88799 3183 ft 158 kts 98°
2026-05-09 19:53 49.51563 10.90366 3067 ft 141 kts 98°
2026-05-09 19:53 49.51418 10.91843 2818 ft 137 kts 97°
2026-05-09 19:54 49.51281 10.93263 2627 ft 130 kts 97°
2026-05-09 19:54 49.51153 10.94607 2438 ft 125 kts 97°
2026-05-09 19:54 49.51023 10.95938 2315 ft 127 kts 96°
2026-05-09 19:54 49.50892 10.97300 2157 ft 130 kts 96°
2026-05-09 19:55 49.50756 10.98693 1957 ft 131 kts 96°
2026-05-09 19:55 49.50621 11.00074 1772 ft 130 kts 96°
2026-05-09 19:55 49.50487 11.01452 1612 ft 131 kts 97°
2026-05-09 19:56 49.50214 11.04284 1303 ft 137 kts 98°
2026-05-09 19:56 49.50070 11.05754 1097 ft 139 kts 97°
2026-05-09 19:56 49.49929 11.07153 1024 ft 119 kts 97°
2026-05-09 19:56 49.49835 11.08155 1032 ft 70 kts 98°
2026-05-09 19:57 49.49783 11.08715 1040 ft 49 kts 98°
2026-05-09 19:57 49.49733 11.09198 1047 ft 41 kts 98°
2026-05-09 19:57 49.49717 11.09366 1049 ft 9 kts 101°
2026-05-09 19:57 49.49702 11.09485 1052 ft 12 kts 106°
2026-05-09 19:58 49.49630 11.09543 1051 ft 14 kts 198°
2026-05-09 19:58 49.49563 11.09430 1048 ft 17 kts 234°
2026-05-09 19:58 49.49532 11.09311 1045 ft 12 kts 272°
2026-05-09 19:58 49.49539 11.09208 1043 ft 7 kts 278°
2026-05-09 19:59 49.49547 11.09130 1041 ft 8 kts 278°
2026-05-09 19:59 49.49559 11.09004 1039 ft 14 kts 278°
2026-05-09 19:59 49.49574 11.08852 1038 ft 14 kts 278°
2026-05-09 19:59 49.49588 11.08706 1037 ft 12 kts 278°
2026-05-09 20:00 49.49598 11.08612 1036 ft 6 kts 279°
2026-05-09 20:00 49.49606 11.08531 1035 ft 11 kts 279°
2026-05-09 20:00 49.49616 11.08414 1034 ft 7 kts 271°
2026-05-09 20:00 49.49583 11.08355 1032 ft 9 kts 196°
2026-05-09 20:01 49.49535 11.08304 1029 ft 10 kts 262°
2026-05-09 20:01 49.49542 11.08210 1028 ft 9 kts 278°
2026-05-09 20:01 49.49552 11.08110 1027 ft 11 kts 279°
2026-05-09 20:01 49.49567 11.07965 1028 ft 15 kts 278°
2026-05-09 20:02 49.49581 11.07821 1027 ft 14 kts 278°
2026-05-09 20:02 49.49591 11.07715 1024 ft 11 kts 278°
2026-05-09 20:02 49.49602 11.07604 1026 ft 8 kts 278°
2026-05-09 20:03 49.49557 11.07520 1026 ft 2 kts 189°
2026-05-09 20:03 49.49543 11.07516 1026 ft 0 kts 189°